TimeCDT,TemperatureF,Dew PointF,Humidity,Sea Level PressureIn,VisibilityMPH,Wind Direction,Wind SpeedMPH,Gust SpeedMPH,PrecipitationIn,Events,Conditions,WindDirDegrees,DateUTC
12:15 AM,49.5,45.3,86,30.14,10.0,NNE,3.5,-,N/A,,Clear,20,2013-10-08 05:15:00
12:35 AM,49.5,45.3,86,30.15,10.0,NNE,4.6,-,N/A,,Clear,30,2013-10-08 05:35:00
12:55 AM,49.3,45.3,86,30.15,10.0,NNE,3.5,-,N/A,,Clear,30,2013-10-08 05:55:00
1:15 AM,48.4,45.1,89,30.15,10.0,Calm,Calm,-,N/A,,Clear,0,2013-10-08 06:15:00
1:35 AM,47.8,45.7,92,30.16,10.0,Calm,Calm,-,N/A,,Clear,0,2013-10-08 06:35:00
1:55 AM,46.9,46.8,99,30.16,10.0,Calm,Calm,-,N/A,,Clear,0,2013-10-08 06:55:00
2:15 AM,47.1,47.1,100,30.16,10.0,NNE,3.5,-,N/A,,Clear,30,2013-10-08 07:15:00
2:35 AM,47.5,47.5,100,30.16,10.0,NNE,3.5,-,N/A,,Clear,30,2013-10-08 07:35:00
2:55 AM,47.5,47.5,100,30.15,10.0,Calm,Calm,-,N/A,,Clear,0,2013-10-08 07:55:00
3:15 AM,47.3,47.3,100,30.15,10.0,Calm,Calm,-,N/A,,Clear,0,2013-10-08 08:15:00
3:35 AM,46.6,46.6,100,30.16,10.0,Calm,Calm,-,N/A,,Clear,0,2013-10-08 08:35:00
3:55 AM,46.4,46.4,100,30.16,10.0,Calm,Calm,-,N/A,,Clear,0,2013-10-08 08:55:00
4:15 AM,45.9,45.9,100,30.16,10.0,Calm,Calm,-,N/A,,Clear,0,2013-10-08 09:15:00
4:35 AM,45.1,45.1,100,30.16,10.0,Calm,Calm,-,N/A,,Clear,0,2013-10-08 09:35:00
4:55 AM,44.8,44.8,100,30.16,10.0,Calm,Calm,-,N/A,,Clear,0,2013-10-08 09:55:00
5:15 AM,45.3,45.3,100,30.17,10.0,Calm,Calm,-,N/A,,Clear,0,2013-10-08 10:15:00
5:35 AM,45.5,45.5,100,30.17,10.0,Calm,Calm,-,N/A,,Clear,0,2013-10-08 10:35:00
5:55 AM,45.5,45.5,100,30.17,10.0,Calm,Calm,-,N/A,,Clear,0,2013-10-08 10:55:00
6:15 AM,45.1,45.1,100,30.18,10.0,NNE,3.5,-,N/A,,Clear,30,2013-10-08 11:15:00
6:35 AM,45.1,45.1,100,30.18,10.0,NE,3.5,-,N/A,,Clear,40,2013-10-08 11:35:00
6:55 AM,45.0,45.0,100,30.19,10.0,Calm,Calm,-,N/A,,Clear,0,2013-10-08 11:55:00
7:15 AM,45.3,45.3,100,30.19,10.0,NNE,3.5,-,N/A,,Clear,30,2013-10-08 12:15:00
7:35 AM,46.8,45.3,95,30.19,10.0,Calm,Calm,-,N/A,,Clear,0,2013-10-08 12:35:00
7:55 AM,48.4,45.0,88,30.20,10.0,Calm,Calm,-,N/A,,Clear,0,2013-10-08 12:55:00
8:15 AM,49.8,45.5,85,30.21,10.0,NE,3.5,-,N/A,,Clear,50,2013-10-08 13:15:00
8:35 AM,51.6,45.9,81,30.21,10.0,NE,3.5,-,N/A,,Clear,50,2013-10-08 13:35:00
8:55 AM,54.0,46.6,76,30.21,10.0,ENE,5.8,-,N/A,,Clear,70,2013-10-08 13:55:00
9:15 AM,55.8,46.9,72,30.21,10.0,NE,6.9,-,N/A,,Clear,50,2013-10-08 14:15:00
9:35 AM,57.7,47.1,68,30.21,10.0,East,12.7,17.3,N/A,,Clear,80,2013-10-08 14:35:00
9:55 AM,59.4,46.9,63,30.21,10.0,East,11.5,19.6,N/A,,Clear,80,2013-10-08 14:55:00
10:15 AM,60.1,46.4,61,30.21,10.0,East,15.0,21.9,N/A,,Clear,80,2013-10-08 15:15:00
10:35 AM,61.0,45.7,57,30.21,10.0,ENE,9.2,16.1,N/A,,Clear,70,2013-10-08 15:35:00
10:55 AM,62.4,45.9,55,30.20,10.0,East,13.8,21.9,N/A,,Clear,80,2013-10-08 15:55:00
11:15 AM,63.5,44.6,50,30.20,10.0,East,13.8,-,N/A,,Clear,80,2013-10-08 16:15:00
11:35 AM,64.0,44.8,50,30.20,10.0,East,12.7,20.7,N/A,,Clear,80,2013-10-08 16:35:00
11:55 AM,64.9,44.4,47,30.20,10.0,East,12.7,17.3,N/A,,Clear,90,2013-10-08 16:55:00
12:15 PM,65.7,44.8,47,30.19,10.0,East,11.5,17.3,N/A,,Clear,100,2013-10-08 17:15:00
12:35 PM,66.6,44.6,45,30.18,10.0,NE,10.4,-,N/A,,Clear,50,2013-10-08 17:35:00
12:55 PM,67.3,43.2,42,30.17,10.0,NNE,10.4,-,N/A,,Clear,30,2013-10-08 17:55:00
1:15 PM,67.6,42.4,40,30.16,10.0,NNE,6.9,18.4,N/A,,Clear,30,2013-10-08 18:15:00
1:35 PM,68.7,42.6,39,30.15,10.0,ENE,9.2,16.1,N/A,,Clear,70,2013-10-08 18:35:00
2:35 PM,70.2,42.3,36,30.14,10.0,ENE,6.9,-,N/A,,Clear,60,2013-10-08 19:35:00
2:55 PM,70.5,42.8,37,30.14,10.0,ENE,10.4,-,N/A,,Clear,70,2013-10-08 19:55:00
3:15 PM,70.7,43.2,37,30.13,10.0,ENE,8.1,-,N/A,,Clear,70,2013-10-08 20:15:00
3:35 PM,70.7,43.3,37,30.14,10.0,ENE,6.9,-,N/A,,Clear,70,2013-10-08 20:35:00
3:55 PM,70.2,43.2,38,30.13,10.0,NNE,6.9,-,N/A,,Clear,30,2013-10-08 20:55:00
4:15 PM,69.8,44.2,40,30.13,10.0,NE,5.8,-,N/A,,Clear,40,2013-10-08 21:15:00
4:35 PM,69.3,45.0,42,30.13,10.0,ENE,4.6,-,N/A,,Clear,60,2013-10-08 21:35:00
4:55 PM,69.1,45.7,43,30.13,10.0,ENE,3.5,-,N/A,,Clear,60,2013-10-08 21:55:00
5:15 PM,68.5,45.7,44,30.13,10.0,Calm,Calm,-,N/A,,Clear,0,2013-10-08 22:15:00
5:35 PM,67.6,46.6,47,30.13,10.0,NE,3.5,-,N/A,,Scattered Clouds,50,2013-10-08 22:35:00
5:55 PM,66.2,46.9,50,30.13,10.0,NNE,3.5,-,N/A,,Clear,30,2013-10-08 22:55:00
6:15 PM,63.9,47.3,55,30.14,10.0,Calm,Calm,-,N/A,,Clear,0,2013-10-08 23:15:00
6:35 PM,61.5,47.3,60,30.15,10.0,Calm,Calm,-,N/A,,Clear,0,2013-10-08 23:35:00
6:55 PM,57.9,47.8,69,30.15,10.0,Calm,Calm,-,N/A,,Clear,0,2013-10-08 23:55:00
7:15 PM,56.1,48.4,75,30.16,10.0,Calm,Calm,-,N/A,,Clear,0,2013-10-09 00:15:00
7:35 PM,55.2,48.2,77,30.16,10.0,Calm,Calm,-,N/A,,Clear,0,2013-10-09 00:35:00
7:55 PM,53.6,48.0,81,30.16,10.0,Calm,Calm,-,N/A,,Clear,0,2013-10-09 00:55:00
8:15 PM,53.4,47.7,81,30.16,10.0,Calm,Calm,-,N/A,,Clear,0,2013-10-09 01:15:00
8:35 PM,53.6,47.5,80,30.16,10.0,Calm,Calm,-,N/A,,Clear,0,2013-10-09 01:35:00
8:55 PM,54.9,47.5,76,30.16,10.0,Calm,Calm,-,N/A,,Clear,0,2013-10-09 01:55:00
9:15 PM,52.9,47.1,81,30.16,10.0,Calm,Calm,-,N/A,,Clear,0,2013-10-09 02:15:00
9:35 PM,52.2,47.1,83,30.17,10.0,Calm,Calm,-,N/A,,Clear,0,2013-10-09 02:35:00
9:55 PM,52.5,47.1,82,30.17,10.0,Calm,Calm,-,N/A,,Clear,0,2013-10-09 02:55:00
10:15 PM,53.1,47.3,81,30.16,10.0,Calm,Calm,-,N/A,,Clear,0,2013-10-09 03:15:00
10:35 PM,53.8,47.5,79,30.16,10.0,Calm,Calm,-,N/A,,Clear,0,2013-10-09 03:35:00
10:55 PM,53.8,47.5,79,30.16,10.0,Calm,Calm,-,N/A,,Clear,0,2013-10-09 03:55:00
11:15 PM,53.4,47.5,80,30.16,10.0,Calm,Calm,-,N/A,,Clear,0,2013-10-09 04:15:00
11:35 PM,52.7,47.3,82,30.16,10.0,Calm,Calm,-,N/A,,Clear,0,2013-10-09 04:35:00
11:55 PM,51.8,47.3,85,30.15,10.0,Calm,Calm,-,N/A,,Clear,0,2013-10-09 04:55:00